Location: *
(46.1006°N, 1.8394°E)
Time: 15:57:07
(UTC+00:00)

Aureole 1 Rocket - Pass Details

Date: 20 September 2019
Orbit: 379 x 1383 km, 73.9° (Epoch: 17 October)

Event Time Altitude Azimuth Distance (km) Brightness Sun altitude
Rises 18:24:23 0° 337° (NNW) 3,462 7.3 -5.9°
Reaches altitude 10° 18:27:11 10° 337° (NNW) 2,346 6.5 -6.4°
Maximum altitude 18:32:23 86° 253° (WSW) 637 3.2 -7.3°
Drops below altitude 10° 18:36:17 10° 161° (SSE) 1,772 5.1 -7.9°
Sets 18:38:09 0° 161° (SSE) 2,549 5.9 -8.3°
